DL4NBA-1 Weather Reports


Display with metric or nautical units.
time (UTC)temp
F
wind
direction
speed
MPH
gust
MPH
rain 1hr
in
rain 24hr
in
rain mn
in
humidity
%
barometer
mb
20260904053704 66 218 4.0 0.0 0.00 0.00 0.00
20260904053205 65 172 3.0 4.0 0.00 0.00 0.00
20260904052707 65 226 3.0 3.0 0.00 0.00 0.00
20260904052205 65 146 3.0 3.0 0.00 0.00 0.00
20260904051707 65 183 4.0 4.0 0.00 0.00 0.00
20260904050709 65 191 5.0 2.0 0.00 0.00 0.00
20260904050211 64 173 4.0 4.0 0.00 0.00 0.00
20260904045710 64 219 4.0 5.0 0.00 0.00 0.00
20260904045211 64 190 4.0 5.0 0.00 0.00 0.00
20260904044712 64 195 4.0 5.0 0.00 0.00 0.00
20260904044214 64 211 5.0 6.0 0.00 0.00 0.00
20260904043715 64 190 6.0 6.0 0.00 0.00 0.00
20260904043213 64 181 7.0 7.0 0.00 0.00 0.00
20260904042714 64 191 5.0 3.0 0.00 0.00 0.00
20260904042216 64 205 4.0 3.0 0.00 0.00 0.00
20260904041717 64 183 6.0 7.0 0.00 0.00 0.00
20260904041218 64 205 6.0 7.0 0.00 0.00 0.00
20260904040717 64 187 5.0 8.0 0.00 0.00 0.00
20260904040218 64 169 5.0 4.0 0.00 0.00 0.00
20260904035720 64 212 5.0 5.0 0.00 0.00 0.00
20260904035221 64 201 5.0 6.0 0.00 0.00 0.00
20260904034723 64 205 4.0 6.0 0.00 0.00 0.00
20260904034220 64 183 5.0 5.0 0.00 0.00 0.00
20260904033722 64 183 3.0 4.0 0.00 0.00 0.00
20260904033223 64 177 2.0 2.0 0.00 0.00 0.00
20260904032725 64 200 2.0 2.0 0.00 0.00 0.00
20260904032226 63 203 1.0 4.0 0.00 0.00 0.00
20260904031724 64 233 1.0 2.0 0.00 0.00 0.00
20260904031225 64 159 2.0 2.0 0.00 0.00 0.00
20260904030727 64 172 2.0 1.0 0.00 0.00 0.00
20260904030228 63 194 0.0 0.0 0.00 0.00 0.00
20260904025730 64 177 2.0 2.0 0.00 0.00 0.00
20260904025227 64 165 3.0 2.0 0.00 0.00 0.00
20260904024729 64 156 3.0 2.0 0.00 0.00 0.00
20260904024230 64 204 1.0 1.0 0.00 0.00 0.00
20260904023233 64 186 2.0 4.0 0.00 0.00 0.00
20260904022730 64 186 4.0 4.0 0.00 0.00 0.00
20260904022232 64 191 4.0 5.0 0.00 0.00 0.00
20260904021733 64 180 6.0 4.0 0.00 0.00 0.00
20260904021235 63 166 2.0 3.0 0.00 0.00 0.00
20260904020736 63 186 3.0 2.0 0.00 0.00 0.00
20260904020235 63 222 3.0 5.0 0.00 0.00 0.00
20260904015736 63 219 3.0 3.0 0.00 0.00 0.00
20260904015237 63 201 3.0 4.0 0.00 0.00 0.00
20260904014739 63 245 1.0 1.0 0.00 0.00 0.00
20260904014240 63 250 1.0 1.0 0.00 0.00 0.00
20260904013738 62 221 1.0 0.0 0.00 0.00 0.00
20260904013239 62 166 2.0 1.0 0.00 0.00 0.00
20260904012242 61 236 1.0 3.0 0.00 0.00 0.00
20260904011744 61 203 1.0 1.0 0.00 0.00 0.00
20260904011240 61 181 3.0 2.0 0.00 0.00 0.00
20260904010742 62 208 2.0 3.0 0.00 0.00 0.00
20260904010243 62 176 3.0 4.0 0.00 0.00 0.00
20260904005246 62 120 1.0 0.0 0.00 0.00 0.00
20260904004744 62 163 1.0 0.0 0.00 0.00 0.00
20260904003745 62 194 1.0 3.0 0.00 0.00 0.00
20260904003246 62 173 2.0 2.0 0.00 0.00 0.00
20260904002748 62 194 2.0 2.0 0.00 0.00 0.00
20260904001748 62 195 2.0 2.0 0.00 0.00 0.00
20260904001249 62 193 2.0 2.0 0.00 0.00 0.00
20260903235252 62 210 2.0 2.0 0.00 0.00 0.00
20260903234255 62 214 2.0 2.0 0.00 0.00 0.00
20260903233756 63 226 3.0 3.0 0.00 0.00 0.00
20260903233254 63 245 2.0 2.0 0.00 0.00 0.00
20260903232255 63 195 2.0 2.0 0.00 0.00 0.00
20260903231757 63 210 0.0 1.0 0.00 0.00 0.00
20260903231258 63 190 2.0 1.0 0.00 0.00 0.00
20260903230754 63 187 1.0 3.0 0.00 0.00 0.00
20260903230255 63 176 1.0 2.0 0.00 0.00 0.00
20260903225756 63 188 2.0 2.0 0.00 0.00 0.00
20260903225258 64 195 3.0 2.0 0.00 0.00 0.00
20260903223300 64 214 3.0 1.0 0.00 0.00 0.00
20260903222801 64 183 1.0 1.0 0.00 0.00 0.00
20260903221800 64 218 3.0 3.0 0.00 0.00 0.00
20260903221302 64 190 2.0 2.0 0.00 0.00 0.00
20260903220803 64 187 2.0 2.0 0.00 0.00 0.00
20260903215806 64 211 2.0 1.0 0.00 0.00 0.00
20260903214307 65 212 2.0 3.0 0.00 0.00 0.00
20260903213808 65 218 2.0 2.0 0.00 0.00 0.00
20260903212808 65 167 0.0 0.0 0.00 0.00 0.00
20260903211811 66 248 1.0 1.0 0.00 0.00 0.00
20260903211312 67 186 1.0 1.0 0.00 0.00 0.00
20260903210814 67 210 1.0 2.0 0.00 0.00 0.00
20260903210312 68 249 3.0 2.0 0.00 0.00 0.00
20260903204816 67 177 1.0 2.0 0.00 0.00 0.00
20260903204317 68 195 0.0 0.0 0.00 0.00 0.00
20260903202818 68 252 1.0 0.0 0.00 0.00 0.00
20260903201821 68 263 1.0 1.0 0.00 0.00 0.00
20260903201318 68 294 0.0 0.0 0.00 0.00 0.00
20260903200819 68 194 2.0 2.0 0.00 0.00 0.00
20260903200321 68 208 2.0 2.0 0.00 0.00 0.00
20260903195822 68 207 2.0 2.0 0.00 0.00 0.00
20260903195323 69 167 1.0 0.0 0.00 0.00 0.00
20260903194821 69 180 2.0 1.0 0.00 0.00 0.00
20260903194322 69 191 2.0 2.0 0.00 0.00 0.00
20260903193823 69 177 2.0 1.0 0.00 0.00 0.00
20260903193325 69 169 2.0 2.0 0.00 0.00 0.00
20260903192826 69 207 2.0 3.0 0.00 0.00 0.00
20260903192324 69 255 1.0 2.0 0.00 0.00 0.00
20260903191826 69 181 0.0 0.0 0.00 0.00 0.00
20260903191327 69 180 3.0 1.0 0.00 0.00 0.00
20260903190828 69 173 3.0 0.0 0.00 0.00 0.00
20260903190330 69 242 1.0 0.0 0.00 0.00 0.00
20260903185828 69 222 1.0 3.0 0.00 0.00 0.00
20260903185330 69 210 2.0 3.0 0.00 0.00 0.00
20260903184831 69 169 7.0 6.0 0.00 0.00 0.00
20260903184332 69 229 2.0 2.0 0.00 0.00 0.00
20260903183834 69 198 1.0 2.0 0.00 0.00 0.00
20260903183330 69 232 2.0 1.0 0.00 0.00 0.00
20260903182333 69 167 5.0 3.0 0.00 0.00 0.00
20260903181834 69 255 4.0 4.0 0.00 0.00 0.00
20260903181335 69 198 4.0 3.0 0.00 0.00 0.00
20260903175337 69 229 2.0 1.0 0.00 0.00 0.00
20260903174839 69 280 3.0 4.0 0.00 0.00 0.00
20260903174336 69 263 2.0 1.0 0.00 0.00 0.00
20260903173338 70 287 4.0 4.0 0.00 0.00 0.00
20260903172341 70 262 5.0 6.0 0.00 0.00 0.00
20260903171838 70 278 6.0 5.0 0.00 0.00 0.00
20260903171339 70 281 6.0 5.0 0.00 0.00 0.00
20260903170840 70 273 10.0 9.0 0.00 0.00 0.00
20260903170342 70 274 12.0 17.0 0.00 0.00 0.00
20260903165843 70 266 9.0 11.0 0.00 0.00 0.00
20260903165339 72 259 6.0 5.0 0.00 0.00 0.00
20260903163842 72 243 9.0 7.0 0.00 0.00 0.00
20260903162839 73 190 8.0 5.0 0.00 0.00 0.00
20260903162339 73 212 5.0 2.0 0.00 0.00 0.00
20260903161840 73 224 5.0 5.0 0.00 0.00 0.00
20260903161341 73 239 3.0 4.0 0.00 0.00 0.00
20260903155842 73 240 5.0 7.0 0.00 0.00 0.00
20260903155343 73 233 6.0 4.0 0.00 0.00 0.00
20260903154844 73 235 6.0 7.0 0.00 0.00 0.00
20260903153843 73 246 8.0 10.0 0.00 0.00 0.00
20260903153344 73 228 6.0 7.0 0.00 0.00 0.00
20260903152347 74 259 7.0 6.0 0.00 0.00 0.00
20260903151848 74 228 9.0 7.0 0.00 0.00 0.00
20260903150847 73 170 5.0 3.0 0.00 0.00 0.00
20260903150349 73 191 5.0 3.0 0.00 0.00 0.00
20260903145850 73 210 5.0 3.0 0.00 0.00 0.00
20260903145351 73 224 4.0 5.0 0.00 0.00 0.00
20260903144849 74 214 4.0 7.0 0.00 0.00 0.00
20260903144350 74 212 5.0 4.0 0.00 0.00 0.00
20260903143353 73 165 5.0 6.0 0.00 0.00 0.00
20260903142854 73 228 6.0 9.0 0.00 0.00 0.00
20260903142351 73 243 7.0 6.0 0.00 0.00 0.00
20260903141852 73 204 7.0 8.0 0.00 0.00 0.00
20260903141353 73 255 7.0 6.0 0.00 0.00 0.00
20260903140355 73 255 8.0 8.0 0.00 0.00 0.00
20260903135354 73 212 6.0 8.0 0.00 0.00 0.00
20260903134855 73 165 8.0 4.0 0.00 0.00 0.00
20260903134356 73 250 7.0 9.0 0.00 0.00 0.00
20260903133857 73 201 8.0 8.0 0.00 0.00 0.00
20260903133354 74 215 5.0 7.0 0.00 0.00 0.00
20260903132357 75 201 6.0 10.0 0.00 0.00 0.00
20260903131858 74 201 9.0 9.0 0.00 0.00 0.00
20260903131359 74 249 7.0 11.0 0.00 0.00 0.00
20260903130857 75 229 6.0 6.0 0.00 0.00 0.00
20260903130358 75 165 7.0 7.0 0.00 0.00 0.00
20260903125859 76 224 7.0 10.0 0.00 0.00 0.00
20260903124901 77 190 6.0 4.0 0.00 0.00 0.00
20260903124359 76 188 8.0 6.0 0.00 0.00 0.00
20260903123900 75 221 9.0 6.0 0.00 0.00 0.00
20260903123401 76 219 10.0 10.0 0.00 0.00 0.00
20260903122902 75 150 9.0 4.0 0.00 0.00 0.00
20260903122403 76 225 5.0 11.0 0.00 0.00 0.00
20260903121901 76 203 9.0 13.0 0.00 0.00 0.00
20260903120404 78 240 9.0 12.0 0.00 0.00 0.00
20260903115905 77 256 9.0 9.0 0.00 0.00 0.00
20260903115404 76 191 7.0 5.0 0.00 0.00 0.00
20260903113907 75 266 9.0 9.0 0.00 0.00 0.00
20260903113409 75 214 8.0 9.0 0.00 0.00 0.00
20260903112906 75 195 9.0 9.0 0.00 0.00 0.00
20260903112408 76 212 5.0 9.0 0.00 0.00 0.00
20260903111909 74 246 10.0 6.0 0.00 0.00 0.00
20260903111410 74 249 9.0 8.0 0.00 0.00 0.00
20260903110410 74 231 7.0 6.0 0.00 0.00 0.00
20260903105911 74 191 3.0 14.0 0.00 0.00 0.00
20260903105412 73 212 6.0 9.0 0.00 0.00 0.00
20260903104914 73 224 6.0 7.0 0.00 0.00 0.00
20260903104415 73 217 7.0 8.0 0.00 0.00 0.00
20260903103912 73 197 9.0 7.0 0.00 0.00 0.00
20260903103414 74 297 5.0 7.0 0.00 0.00 0.00
20260903102915 73 228 6.0 2.0 0.00 0.00 0.00
20260903101918 72 269 5.0 8.0 0.00 0.00 0.00
20260903101415 71 253 7.0 7.0 0.00 0.00 0.00
20260903100916 71 156 6.0 3.0 0.00 0.00 0.00
20260903100418 70 219 6.0 7.0 0.00 0.00 0.00
20260903095919 70 207 5.0 3.0 0.00 0.00 0.00
20260903095420 70 229 8.0 8.0 0.00 0.00 0.00
20260903094918 71 226 11.0 13.0 0.00 0.00 0.00
20260903094419 72 281 6.0 7.0 0.00 0.00 0.00
20260903093920 71 195 7.0 9.0 0.00 0.00 0.00
20260903093422 71 217 5.0 3.0 0.00 0.00 0.00
20260903092923 70 194 7.0 4.0 0.00 0.00 0.00
20260903092421 70 243 7.0 9.0 0.00 0.00 0.00
20260903091923 71 240 9.0 8.0 0.00 0.00 0.00
20260903090925 69 267 5.0 3.0 0.00 0.00 0.00
20260903090427 70 257 9.0 11.0 0.00 0.00 0.00
20260903085924 71 280 6.0 8.0 0.00 0.00 0.00
20260903085425 70 255 6.0 7.0 0.00 0.00 0.00
20260903084927 70 263 9.0 12.0 0.00 0.00 0.00
20260903084428 70 252 10.0 7.0 0.00 0.00 0.00
20260903083929 69 240 6.0 8.0 0.00 0.00 0.00
20260903083428 70 240 7.0 5.0 0.00 0.00 0.00
20260903082929 69 224 9.0 7.0 0.00 0.00 0.00
20260903082430 69 236 7.0 7.0 0.00 0.00 0.00
20260903081433 68 257 8.0 6.0 0.00 0.00 0.00
20260903080931 68 238 7.0 8.0 0.00 0.00 0.00
20260903080432 68 204 8.0 8.0 0.00 0.00 0.00
20260903075933 68 246 4.0 3.0 0.00 0.00 0.00
20260903075435 71 214 6.0 6.0 0.00 0.00 0.00
20260903074936 69 181 3.0 6.0 0.00 0.00 0.00
20260903074434 68 217 4.0 6.0 0.00 0.00 0.00
20260903073436 66 176 4.0 3.0 0.00 0.00 0.00
20260903072938 65 191 5.0 3.0 0.00 0.00 0.00
20260903072439 64 276 3.0 2.0 0.00 0.00 0.00
20260903071936 64 159 3.0 0.0 0.00 0.00 0.00
20260903071438 64 181 1.0 1.0 0.00 0.00 0.00
20260903065942 62 210 3.0 4.0 0.00 0.00 0.00
20260903063945 60 218 3.0 3.0 0.00 0.00 0.00
20260903063446 60 219 4.0 3.0 0.00 0.00 0.00
20260903062944 60 184 4.0 2.0 0.00 0.00 0.00
20260903062445 59 177 3.0 2.0 0.00 0.00 0.00
20260903061946 59 174 2.0 3.0 0.00 0.00 0.00
20260903061448 58 191 2.0 3.0 0.00 0.00 0.00
20260903060949 58 188 2.0 2.0 0.00 0.00 0.00
20260903060447 57 153 2.0 2.0 0.00 0.00 0.00
20260903054949 55 226 4.0 5.0 0.00 0.00 0.00
20260903054450 54 240 5.0 5.0 0.00 0.00 0.00